Flight Track Log - Related Links

Times and Time Zones

All times are in EDT time to prevent confusion due to time zone crossing. See the TMC426 flight status page for this flight to view local times or setup timezone preferences in your user account.

Time Position Orientation Groundspeed Altitude Reporting Facility
EDT Latitude Longitude Course Direction KTS MPH feet Rate Location/Type
Sun 03:19:37 PM 42.2036 -83.3556 208° Southwest 163 188 1,400  Level Cleveland Center
Sun 03:20:01 PM 42.1889 -83.3661 208° Southwest 185 213 2,800 3,873 Climbing Cleveland Center
Sun 03:20:56 PM 42.1522 -83.4150 225° Southwest 223 257 6,500 4,171 Climbing Cleveland Center
Sun 03:21:46 PM 42.1611 -83.4742 281° West 216 249 10,100 4,388 Climbing Cleveland Center
Sun 03:22:03 PM 42.1756 -83.4831 335° Northwest 223 257 11,400 2,700 Climbing Cleveland Center
Sun 03:22:46 PM 42.2256 -83.4797 North 260 299 12,800 932 Climbing Cleveland Center
Sun 03:23:46 PM 42.3092 -83.4725 North 282 325 13,000 100 Climbing Cleveland Center
Sun 03:24:46 PM 42.3950 -83.4594 North 304 350 13,000 1,050 Level Cleveland Center
Sun 03:25:46 PM 42.4767 -83.4436 North 314 361 15,100 2,800 Climbing Cleveland Center
Sun 03:26:46 PM 42.5731 -83.4281 North 324 373 18,600 3,500 Climbing Cleveland Center
Sun 03:27:46 PM 42.6692 -83.4128 North 342 394 22,100 2,200 Climbing Cleveland Center
Sun 03:28:46 PM 42.7697 -83.3947 North 353 406 23,000 1,800 Climbing Cleveland Center
Sun 03:29:46 PM 42.8744 -83.3739 North 366 421 25,700 2,300 Climbing Cleveland Center
Sun 03:30:46 PM 42.9789 -83.3672 North 371 427 27,600 2,000 Climbing Cleveland Center
Sun 03:31:46 PM 43.0847 -83.3833 354° North 371 427 29,700 1,300 Climbing Cleveland Center
Sun 03:32:46 PM 43.1833 -83.4419 337° Northwest 371 427 30,200 1,100 Climbing Cleveland Center
Sun 03:33:46 PM 43.2861 -83.5064 335° Northwest 385 443 31,900 1,600 Climbing Cleveland Center
Sun 03:34:46 PM 43.3844 -83.5739 333° Northwest 392 451 33,400 1,350 Climbing Cleveland Center
Sun 03:35:46 PM 43.4739 -83.6500 328° Northwest 392 451 34,600 965 Climbing Cleveland Center
Sun 03:38:05 PM 43.5717 -83.9369 295° West 372 428 36,600 896 Climbing Minneapolis Center
Sun 03:39:07 PM 43.6117 -84.0989 289° West 373 429 37,600 683 Climbing Minneapolis Center
Sun 03:40:08 PM 43.6458 -84.2331 289° West 372 428 38,000 195 Climbing Minneapolis Center
Sun 03:41:10 PM 43.6803 -84.3717 289° West 378 435 38,000  Level Minneapolis Center
Sun 03:42:12 PM 43.7158 -84.5125 289° West 387 445 38,000  Level Minneapolis Center
Sun 03:43:26 PM 43.7581 -84.6839 289° West 392 451 38,000  Level Minneapolis Center
Sun 03:44:27 PM 43.7922 -84.8233 289° West 388 447 38,000  Level Minneapolis Center
Sun 03:45:29 PM 43.8339 -84.9928 289° West 389 448 38,000  Level Minneapolis Center
Sun 03:46:31 PM 43.8683 -85.1342 289° West 390 449 38,000  Level Minneapolis Center
Sun 03:47:33 PM 43.9011 -85.2747 288° West 387 445 38,000  Level Minneapolis Center
Sun 03:48:34 PM 43.9353 -85.4156 289° West 387 445 38,000  Level Minneapolis Center
Sun 03:49:36 PM 43.9694 -85.5572 289° West 389 448 38,000  Level Minneapolis Center
Sun 03:50:38 PM 44.0025 -85.6975 288° West 387 445 38,000  Level Minneapolis Center
Sun 03:51:39 PM 44.0286 -85.8111 288° West 387 445 38,000  Level Minneapolis Center
Sun 03:52:42 PM 44.0750 -86.0111 288° West 390 449 38,000  Level Minneapolis Center
Sun 03:53:43 PM 44.1086 -86.1539 288° West 390 449 38,000  Level Minneapolis Center
Sun 03:54:45 PM 44.1447 -86.3133 288° West 392 451 38,000  Level Minneapolis Center
Sun 03:55:47 PM 44.1783 -86.4592 288° West 394 453 38,000  Level Minneapolis Center
Sun 03:56:49 PM 44.2119 -86.6069 288° West 397 457 38,000  Level Minneapolis Center
Sun 03:57:51 PM 44.2442 -86.7506 287° West 390 449 38,000  Level Minneapolis Center
Sun 03:58:52 PM 44.2761 -86.8956 287° West 390 449 38,000  Level Minneapolis Center
Sun 03:59:54 PM 44.3072 -87.0394 287° West 388 447 38,000  Level Minneapolis Center
Sun 04:00:56 PM 44.3386 -87.1819 287° West 385 443 38,000  Level Minneapolis Center
Sun 04:01:58 PM 44.3717 -87.3319 287° West 383 441 38,000  Level Minneapolis Center
Sun 04:03:00 PM 44.4067 -87.4975 287° West 382 440 38,000  Level Minneapolis Center
Sun 04:04:01 PM 44.4378 -87.6414 287° West 385 443 38,000  Level Minneapolis Center
Sun 04:05:03 PM 44.4692 -87.7858 287° West 387 445 38,000  Level Minneapolis Center
Sun 04:06:05 PM 44.4997 -87.9294 287° West 390 449 38,000  Level Minneapolis Center
Sun 04:07:07 PM 44.5303 -88.0756 286° West 387 445 38,000  Level Minneapolis Center
Sun 04:08:08 PM 44.5547 -88.1981 286° West 390 449 38,000  Level Minneapolis Center
Sun 04:09:11 PM 44.5797 -88.4017 280° West 398 458 38,000  Level Minneapolis Center
Sun 04:10:13 PM 44.5972 -88.5553 279° West 401 461 38,000  Level Minneapolis Center
Sun 04:11:14 PM 44.6156 -88.7100 280° West 403 464 38,000  Level Minneapolis Center
Sun 04:12:16 PM 44.6336 -88.8650 279° West 403 464 38,000  Level Minneapolis Center
Sun 04:13:18 PM 44.6506 -89.0189 279° West 400 460 38,000  Level Minneapolis Center
Sun 04:14:20 PM 44.6700 -89.1967 279° West 396 456 38,000  Level Minneapolis Center
Sun 04:15:22 PM 44.6867 -89.3486 279° West 394 453 38,000  Level Minneapolis Center
Sun 04:16:24 PM 44.7019 -89.4997 278° West 391 450 38,000 -48 Level Minneapolis Center
Sun 04:17:26 PM 44.7183 -89.6500 279° West 390 449 37,900 -1,016 Descending Minneapolis Center
Sun 04:18:28 PM 44.7347 -89.8022 279° West 393 452 35,900 -2,032 Descending Minneapolis Center
Sun 04:19:30 PM 44.7503 -89.9592 278° West 401 461 33,700 -1,887 Descending Minneapolis Center
Sun 04:20:32 PM 44.7675 -90.1339 278° West 391 450 32,000 -823 Descending Minneapolis Center
Sun 04:21:34 PM 44.7808 -90.2547 279° West 381 438 32,000  Level Minneapolis Center
Sun 04:22:36 PM 44.7981 -90.4272 278° West 382 440 32,000  Level Minneapolis Center
Sun 04:23:38 PM 44.8119 -90.5617 278° West 381 438 32,000 -145 Level Minneapolis Center
Sun 04:24:40 PM 44.8356 -90.7369 281° West 381 438 31,700 -1,171 Descending Minneapolis Center
Sun 04:25:41 PM 44.8572 -90.8906 281° West 386 444 29,600 -1,951 Descending Minneapolis Center
Sun 04:26:43 PM 44.8767 -91.0300 281° West 382 440 27,700 -1,645 Descending Minneapolis Center
Sun 04:27:45 PM 44.8925 -91.1425 281° West 374 430 26,200 -1,742 Descending Minneapolis Center
Sun 04:28:47 PM 44.9150 -91.3047 281° West 359 413 24,100 -1,694 Descending Minneapolis Center
Sun 04:29:49 PM 44.9300 -91.4092 282° West 349 402 22,700 -1,839 Descending Minneapolis Center
Sun 04:30:51 PM 44.9558 -91.5914 281° West 342 394 20,300 -1,984 Descending Minneapolis Center
Sun 04:31:53 PM 44.9728 -91.7194 281° West 337 388 18,600 -1,597 Descending Minneapolis Center
Sun 04:32:55 PM 44.9906 -91.8417 282° West 325 374 17,000 -1,597 Descending Minneapolis Center
Sun 04:33:57 PM 45.0064 -91.9642 280° West 318 366 15,300 -1,597 Descending Minneapolis Center
Sun 04:34:59 PM 45.0222 -92.0825 281° West 310 357 13,700 -1,694 Descending Minneapolis Center
Sun 04:36:01 PM 45.0406 -92.2247 280° West 308 354 11,800 -1,306 Descending Minneapolis Center
Sun 04:37:03 PM 45.0406 -92.3447 270° West 307 353 11,000 -387 Descending Minneapolis Center
Sun 04:38:05 PM 44.9831 -92.4417 230° Southwest 331 381 11,000 -339 Level Minneapolis Center
Sun 04:39:07 PM 44.9150 -92.5294 222° Southwest 332 382 10,300 -774 Descending Minneapolis Center
Sun 04:40:09 PM 44.8589 -92.6128 226° Southwest 298 343 9,400 -1,113 Descending Minneapolis Center
Sun 04:41:11 PM 44.8111 -92.6983 232° Southwest 279 321 8,000 -1,059 Descending Minneapolis Center
Sun 04:42:25 PM 44.7600 -92.7992 235° Southwest 265 305 7,000 -1,015 Descending Minneapolis Center
Sun 04:43:27 PM 44.7317 -92.9069 250° West 262 302 5,700 -926 Descending Minneapolis Center
Sun 04:44:41 PM 44.7731 -92.9706 313° West 223 257 4,900 -964 Descending Minneapolis Center
Sun 04:45:44 PM 44.8039 -93.0428 301° West 184 212 3,500 -964 Descending Minneapolis Center
Sun 04:46:58 PM 44.8250 -93.0897 302° West 135 155 2,700 -750 Descending Minneapolis Center
Sun 04:48:00 PM 44.8492 -93.1458 301° West 121 139 1,800 -774 Descending Minneapolis Center
Sun 04:49:02 PM 44.8675 -93.1875 302° West 127 146 1,100 -677 Descending Minneapolis Center
Sun 04:51:00 PM 44.8667 -93.2167 235° Southwest  Level FlightAware

Login

Don't have an account? Register now (free) for customized features, flight alerts, and more!